User: anonymous   Login
Location: Kuffner-Sternwarte
(48.2130°N, 16.2960°E)
Time: 23:09:28
(UTC+02:00)
Language:

COROT - Orbit

View from above orbital plane
View from above orbital plane
View from above satellite
View from above satellite

Ground track
Ground track

The orbit data is extracted from the following two-line orbital elements,

1 29678U 06063A   18200.42016212  .00000167  00000-0  34802-4 0  9991
2 29678  90.0323  16.7761 0200593 209.3578 149.6239 14.44193905597399
Epoch (UTC): 19 July 2018 10:05:02
Eccentricity: 0.0200593
inclination: 90.0323°
perigee height: 602 km
apogee height: 887 km
right ascension of ascending node: 16.7761°
argument of perigee: 209.3578°
revolutions per day: 14.44193905
mean anomaly at epoch: 149.6239°
orbit number at epoch: 59739

The dashed part of the orbit path shows where the satellite is in the earth's shadow,  

DLR